Weather History for KYNG - September, 2013

Change the Weather History Date:

Friday, September 20, 2013

  Actual Average Record
Temperature  
Mean Temperature 69 °F 60 °F  
Max Temperature 77 °F 71 °F 89 °F (1978)
Min Temperature 60 °F 50 °F 36 °F (1956)
Degree Days  
Heating Degree Days 0 6  
Month to date heating degree days 75 69  
Since 1 July heating degree days 113 107  
Cooling Degree Days 4 1  
Month to date cooling degree days 57 42  
Year to date cooling degree days 606 528  
Growing Degree Days 18 (Base 50)    
Moisture  
Dew Point 65 °F    
Average Humidity 90    
Maximum Humidity 100    
Minimum Humidity 79    
Precipitation  
Precipitation T in 0.13 in 0.73 in (1966)
Month to date precipitation 1.13 2.54  
Year to date precipitation 28.35 28.76  
Snow  
Snow 0.00 in 0.00 in - ()
Month to date snowfall 0.0 0.0  
Since 1 July snowfall 0.0 0.0  
Since 1 September snowfall 0.0 0.0  
Snow Depth 0.00 in    
Sea Level Pressure  
Sea Level Pressure 29.94 in    
Wind  
Wind Speed 8 mph (SSE)    
Max Wind Speed 15 mph    
Max Gust Speed 18 mph    
Visibility 3 miles    
Events Fog , Rain    
T = Trace of Precipitation, MM = Missing Value Source: NWS Daily Summary

Daily Weather History Graph

Daily Weather History Graph

Search for Another Location

Airport or City:

Trip Planner

Search our weather history database for the weather conditions in past years. The results will help you decide how hot, cold, wet, or windy it might be!

Date:

Astronomy

Sep. 20, 2013 Rise Set
Actual Time 7:08 AM EDT 7:22 PM EDT
Civil Twilight 6:40 AM EDT 7:50 PM EDT
Nautical Twilight 6:08 AM EDT 8:22 PM EDT
Astronomical Twilight 5:35 AM EDT 8:55 PM EDT
Moon 7:54 PM EDT (9/20) 8:22 AM EDT (9/20)
Length of Visible Light 13h 09m
Length of Day
12h 14m
Full, 98% of the Moon is Illuminated
Sep 20
Full
Sep 26
Last Quarter
Oct 4
New
Oct 11
First Quarter
Oct 18
Full

Hourly Weather History & Observations

Time (EDT) Temp. Dew Point Humidity Pressure Visibility Wind Dir Wind Speed Gust Speed Precip Events Conditions
12:51 AM 60.1 °F 57.9 °F 93% 30.04 in 4.0 mi SE 4.6 mph - N/A   Overcast
1:51 AM 60.1 °F 57.9 °F 93% 30.02 in 4.0 mi SE 5.8 mph - N/A   Mostly Cloudy
2:51 AM 63.0 °F 60.1 °F 90% 30.02 in 4.0 mi South 5.8 mph - N/A   Scattered Clouds
3:51 AM 62.1 °F 60.1 °F 93% 30.01 in 3.0 mi South 5.8 mph - N/A   Partly Cloudy
3:57 AM 62.6 °F 60.8 °F 94% 30.02 in 3.0 mi SSE 5.8 mph - N/A   Mostly Cloudy
4:06 AM 62.6 °F 60.8 °F 94% 30.02 in 2.5 mi SE 5.8 mph - N/A   Mostly Cloudy
4:51 AM 63.0 °F 61.0 °F 93% 30.00 in 2.5 mi South 5.8 mph - N/A   Mostly Cloudy
5:51 AM 63.0 °F 62.1 °F 97% 29.99 in 2.5 mi SSE 6.9 mph - N/A   Mostly Cloudy
6:51 AM 64.0 °F 62.1 °F 93% 29.99 in 2.0 mi South 4.6 mph - N/A   Overcast
7:12 AM 64.4 °F 62.6 °F 94% 30.00 in 1.8 mi SE 5.8 mph - N/A   Overcast
7:51 AM 64.0 °F 63.0 °F 96% 29.99 in 0.8 mi SSE 6.9 mph - N/A   Overcast
8:51 AM 64.9 °F 64.0 °F 97% 29.98 in 0.5 mi SSE 8.1 mph 17.3 mph N/A Fog Fog
9:51 AM 64.9 °F 64.0 °F 97% 29.99 in 0.5 mi SSE 10.4 mph - 0.00 in Fog , Rain Light Rain
10:28 AM 66.2 °F 64.4 °F 94% 29.99 in 1.0 mi SSE 8.1 mph - 0.00 in   Overcast
10:51 AM 68.0 °F 64.9 °F 90% 29.97 in 1.5 mi South 9.2 mph - 0.00 in   Overcast
11:34 AM 69.8 °F 64.4 °F 83% 29.98 in 2.5 mi South 6.9 mph - N/A   Overcast
11:43 AM 69.8 °F 64.4 °F 83% 29.98 in 1.5 mi South 6.9 mph - N/A   Overcast
11:51 AM 70.0 °F 66.0 °F 87% 29.96 in 1.5 mi South 8.1 mph - N/A   Overcast
12:51 PM 70.0 °F 66.0 °F 87% 29.96 in 1.5 mi SSE 4.6 mph - N/A   Overcast
1:51 PM 73.0 °F 66.9 °F 81% 29.93 in 1.5 mi SE 12.7 mph - N/A   Overcast
2:17 PM 73.4 °F 68.0 °F 83% 29.93 in 1.5 mi SSE 8.1 mph - N/A   Overcast
2:22 PM 73.4 °F 68.0 °F 83% 29.92 in 3.0 mi SSE 10.4 mph - N/A   Overcast
2:51 PM 73.9 °F 66.9 °F 79% 29.91 in 3.0 mi South 9.2 mph - N/A   Overcast
3:51 PM 75.0 °F 68.0 °F 79% 29.88 in 3.0 mi South 9.2 mph - N/A   Haze
4:36 PM 75.2 °F 68.0 °F 78% 29.88 in 6.0 mi SSE 11.5 mph - N/A   Haze
4:43 PM 75.2 °F 68.0 °F 78% 29.88 in 6.0 mi SSE 10.4 mph - N/A   Haze
4:51 PM 75.9 °F 68.0 °F 76% 29.86 in 6.0 mi South 8.1 mph - N/A   Haze
5:51 PM 75.0 °F 68.0 °F 79% 29.84 in 6.0 mi South 8.1 mph - N/A   Haze
6:51 PM 73.9 °F 68.0 °F 82% 29.84 in 5.0 mi South 5.8 mph - N/A   Haze
7:51 PM 72.0 °F 68.0 °F 87% 29.83 in 5.0 mi South 9.2 mph - N/A   Haze
8:51 PM 72.0 °F 66.9 °F 84% 29.82 in 6.0 mi SSE 8.1 mph - N/A   Haze
9:51 PM 71.1 °F 66.9 °F 87% 29.83 in 6.0 mi South 10.4 mph - N/A   Mostly Cloudy
10:51 PM 71.1 °F 66.9 °F 87% 29.81 in 7.0 mi South 9.2 mph - N/A   Overcast
11:51 PM 71.1 °F 66.9 °F 87% 29.79 in 6.0 mi South 10.4 mph - N/A   Mostly Cloudy